BAW911U EDDF-EGLL

Flight info

Callsign BAW911U
Flight time N/A
Altitude 36000
Route OBOKA3W/25C OBOKA Z29 TORNU DCT ABNED L980 LOGAN
Aircraft A321/M-SDE3FGHIRWY/LB1

Departure

Time 2026-05-04 17:50
Airport Frankfurt Main Airport (EDDF)

Arrival

Time N/A
Airport London Heathrow Airport (EGLL)
Time Latitude Longitude Altitude Speed Heading
2026-05-04 17:12 50.05055 8.58635 360 ft 0 kts 339°
2026-05-04 17:36 50.05033 8.58647 361 ft 4 kts 339°
2026-05-04 17:36 50.05008 8.58662 361 ft 4 kts 339°
2026-05-04 17:36 50.04987 8.58674 366 ft 4 kts 338°
2026-05-04 17:36 50.04967 8.58694 359 ft 4 kts 294°
2026-05-04 17:37 50.04965 8.58732 361 ft 4 kts 251°
2026-05-04 17:37 50.04972 8.58762 361 ft 0 kts 249°
2026-05-04 17:42 50.04971 8.58760 364 ft 1 kts 249°
2026-05-04 17:43 50.04967 8.58743 361 ft 3 kts 249°
2026-05-04 17:43 50.04959 8.58709 364 ft 4 kts 245°
2026-05-04 17:43 50.04934 8.58677 361 ft 5 kts 205°
2026-05-04 17:43 50.04903 8.58675 361 ft 4 kts 167°
2026-05-04 17:44 50.04885 8.58686 366 ft 2 kts 161°
2026-05-04 17:44 50.04874 8.58692 363 ft 2 kts 161°
2026-05-04 17:44 50.04864 8.58697 363 ft 0 kts 160°
2026-05-04 17:45 50.04859 8.58700 367 ft 2 kts 160°
2026-05-04 17:45 50.04832 8.58715 369 ft 6 kts 159°
2026-05-04 17:45 50.04784 8.58743 366 ft 9 kts 160°
2026-05-04 17:46 50.04729 8.58768 368 ft 8 kts 179°
2026-05-04 17:46 50.04673 8.58762 370 ft 8 kts 186°
2026-05-04 17:46 50.04637 8.58755 370 ft 3 kts 188°
2026-05-04 17:46 50.04611 8.58744 371 ft 5 kts 200°
2026-05-04 17:47 50.04575 8.58704 371 ft 8 kts 220°
2026-05-04 17:47 50.04532 8.58662 371 ft 7 kts 197°
2026-05-04 17:47 50.04501 8.58635 371 ft 6 kts 237°
2026-05-04 17:47 50.04496 8.58619 371 ft 0 kts 246°
2026-05-04 17:49 50.04485 8.58581 370 ft 13 kts 247°
2026-05-04 17:49 50.04358 8.58042 366 ft 91 kts 250°
2026-05-04 17:49 50.04058 8.56787 360 ft 153 kts 249°
2026-05-04 17:50 50.03784 8.55649 413 ft 180 kts 250°
2026-05-04 17:50 50.03204 8.53238 1393 ft 178 kts 250°
2026-05-04 17:50 50.02903 8.52028 1920 ft 178 kts 250°
2026-05-04 17:50 50.02380 8.50244 2508 ft 188 kts 239°
2026-05-04 17:51 50.01403 8.48737 2830 ft 208 kts 212°
2026-05-04 17:51 50.00047 8.47995 3375 ft 213 kts 189°
2026-05-04 17:51 49.98656 8.47695 3980 ft 211 kts 188°
2026-05-04 17:51 49.97201 8.47374 4657 ft 210 kts 188°
2026-05-04 17:52 49.95765 8.46962 5271 ft 211 kts 196°
2026-05-04 17:52 49.94288 8.46274 5545 ft 233 kts 197°
2026-05-04 17:52 49.92712 8.45451 6156 ft 241 kts 205°
2026-05-04 17:52 49.91323 8.43991 6916 ft 244 kts 223°
2026-05-04 17:53 49.90286 8.41938 7679 ft 247 kts 237°